TimeCST,TemperatureF,Dew PointF,Humidity,Sea Level PressureIn,VisibilityMPH,Wind Direction,Wind SpeedMPH,Gust SpeedMPH,PrecipitationIn,Events,Conditions,WindDirDegrees,DateUTC
12:51 AM,57.9,48.9,72,30.27,10.0,NE,5.8,-,N/A,,Clear,50,2012-11-18 06:51:00
1:51 AM,57.0,53.1,87,30.25,10.0,NE,6.9,-,N/A,,Clear,50,2012-11-18 07:51:00
2:51 AM,55.9,51.1,84,30.24,10.0,NE,5.8,-,N/A,,Clear,40,2012-11-18 08:51:00
3:51 AM,54.0,50.0,86,30.24,10.0,NNE,6.9,-,N/A,,Clear,30,2012-11-18 09:51:00
4:51 AM,54.0,51.1,90,30.22,10.0,NE,6.9,-,N/A,,Clear,40,2012-11-18 10:51:00
5:51 AM,55.9,52.0,87,30.23,10.0,NE,4.6,-,N/A,,Clear,50,2012-11-18 11:51:00
6:51 AM,55.9,52.0,87,30.23,10.0,ENE,4.6,-,N/A,,Partly Cloudy,60,2012-11-18 12:51:00
7:51 AM,61.0,55.9,83,30.25,10.0,NE,5.8,-,N/A,,Clear,40,2012-11-18 13:51:00
8:51 AM,66.0,57.0,73,30.25,10.0,NE,8.1,-,N/A,,Partly Cloudy,50,2012-11-18 14:51:00
9:51 AM,72.0,57.0,59,30.27,10.0,ENE,8.1,-,N/A,,Partly Cloudy,60,2012-11-18 15:51:00
10:51 AM,75.0,55.9,51,30.26,10.0,ESE,10.4,-,N/A,,Scattered Clouds,110,2012-11-18 16:51:00
11:51 AM,75.9,54.0,46,30.23,10.0,ESE,11.5,-,N/A,,Scattered Clouds,120,2012-11-18 17:51:00
12:51 PM,78.1,55.0,45,30.20,10.0,East,13.8,21.9,N/A,,Scattered Clouds,100,2012-11-18 18:51:00
1:51 PM,79.0,55.0,44,30.19,10.0,East,16.1,-,N/A,,Scattered Clouds,100,2012-11-18 19:51:00
2:51 PM,78.1,53.1,42,30.18,10.0,ESE,16.1,23.0,N/A,,Scattered Clouds,110,2012-11-18 20:51:00
3:51 PM,77.0,52.0,42,30.18,10.0,SE,16.1,-,N/A,,Scattered Clouds,130,2012-11-18 21:51:00
4:51 PM,75.0,53.1,46,30.19,10.0,ESE,13.8,-,N/A,,Scattered Clouds,120,2012-11-18 22:51:00
5:51 PM,72.0,53.1,51,30.20,10.0,ESE,9.2,-,N/A,,Scattered Clouds,120,2012-11-18 23:51:00
6:51 PM,66.9,52.0,59,30.22,10.0,East,5.8,-,N/A,,Partly Cloudy,100,2012-11-19 00:51:00
7:51 PM,66.0,55.9,70,30.22,10.0,East,9.2,-,N/A,,Partly Cloudy,100,2012-11-19 01:51:00
8:51 PM,66.9,57.0,70,30.22,10.0,ESE,8.1,-,N/A,,Clear,110,2012-11-19 02:51:00
9:51 PM,64.9,55.9,73,30.22,10.0,East,6.9,-,N/A,,Clear,100,2012-11-19 03:51:00
10:51 PM,64.9,57.0,75,30.22,10.0,ESE,3.5,-,N/A,,Clear,110,2012-11-19 04:51:00
11:51 PM,61.0,54.0,78,30.22,10.0,Calm,Calm,-,N/A,,Clear,0,2012-11-19 05:51:00